Погода в Новомуслюмове

Россия / Республика Башкортостан     55°56′24″N   58°28′13″E
темп.,
°C
ветер,
м/с
пор.,
м/с
влажн.,
%
обл.,
%
осадки,
мм/ч
давл.,
гПа
погр.,
м
14 апреля, ср
ср1423:00+6ююз24100100 0.0 1036104
02:00+6ююз2599100 0.0 1035133
05:00+6ююз2399100 0.0 1035111
08:00+4ю24100100 0.1 1035104
11:00+6ю24100100 0.1 1034187
14:00+9ююз239282 0.0 1033272
17:00+12юз11805 0.0 1031203
20:00+9юв11905 0.0 102910
15 апреля, чт
чт1523:00+8ююв118916 0.0 102910
02:00+7ю118970 0.0 102810
05:00+6ююз229455 0.0 102811
08:00+7ю249147 0.0 102791
11:00+12юз47645 0.0 1025473
14:00+16юз57505 0.0 10231032
17:00+17зюз57485 0.0 10221133
20:00+12зюз33690 0.0 102134
16 апреля, пт
пт1623:00+10юз22765 0.0 102115
02:00+8ююз227666 0.0 102013
05:00+7зсз1180100 0.0 102010
08:00+7с2388100 0.0 1021102
11:00+8всв588598 0.0 1022585
14:00+6всв6881100 0.0 1024604
17:00+5всв5986100 0.0 1025596
20:00+4в498196 0.0 1025434
17 апреля, сб
сб1723:00+3всв388729 0.0 1025266
02:00+1св36919 0.0 1025125
05:00+1св33835 0.0 102552
08:00+3ссв35725 0.0 1025194
11:00+7с45480 0.0 1025964
14:00+9ссз45411 0.0 10241372
17:00+9ссз56445 0.0 10231554
20:00+7сз375814 0.0 1023176
18 апреля, вс
вс1823:00+4ссз397114 0.0 1023308
02:00+2зсз37815 0.0 1022168
05:000зсз38875 0.0 1022199
08:00+2сз511755 0.0 1022672
11:00+4ссз8125875 0.1 10221669
14:00+5с8103447 0.0 10232151
17:00+4ссв7734100 0.0 10252201
20:000всв68513 0.0 10291080